Weather History for Natchez, MS

Change the Weather History Date:

Tuesday, March 18, 2014

  Actual Average Record
Temperature  
Mean Temperature 53 °F -  
Max Temperature 71 °F 72 °F 88 °F (1963)
Min Temperature 35 °F 49 °F 33 °F (1941)
Degree Days  
Heating Degree Days 12    
Growing Degree Days 3 (Base 50)    
Moisture  
Dew Point 39 °F    
Average Humidity 65    
Maximum Humidity 93    
Minimum Humidity 35    
Precipitation  
Precipitation 0.00 in - - ()
Sea Level Pressure  
Sea Level Pressure 29.88 in    
Wind  
Wind Speed 5 mph (South)    
Max Wind Speed 15 mph    
Max Gust Speed 21 mph    
Visibility 10 miles    
Events      
Averages and records for this station are not official NWS values.
T = Trace of Precipitation, MM = Missing Value Source: NWS Daily Summary

Daily Weather History Graph

Daily Weather History Graph

Search for Another Location

Airport:

Trip Planner

Search our weather history database for the weather conditions in past years. The results will help you decide how hot, cold, wet, or windy it might be!

Date:

Astronomy

Mar. 18, 2014 Rise Set
Actual Time 7:11 AM CDT 7:15 PM CDT
Civil Twilight 6:47 AM CDT 7:39 PM CDT
Nautical Twilight 6:18 AM CDT 8:07 PM CDT
Astronomical Twilight 5:50 AM CDT 8:36 PM CDT
Moon 9:22 PM CDT (3/18) 8:09 AM CDT (3/18)
Length of Visible Light 12h 52m
Length of Day
12h 03m
Waning Gibbous, 96% of the Moon is Illuminated
Mar 18
Waning Gibbous
Mar 23
Last Quarter
Mar 30
New
Apr 7
First Quarter
Apr 15
Full

Hourly Weather History & Observations

Time (CDT) Temp. Windchill Dew Point Humidity Pressure Visibility Wind Dir Wind Speed Gust Speed Precip Events Conditions
12:15 AM 39.2 °F - 33.8 °F 81% 29.89 in 10.0 mi Calm Calm - N/A   Overcast
12:35 AM 39.2 °F - 33.8 °F 81% 29.89 in 10.0 mi Calm Calm - N/A   Overcast
12:55 AM 39.2 °F - 33.8 °F 81% 29.89 in 10.0 mi Calm Calm - N/A   Overcast
1:15 AM 39.2 °F - 33.8 °F 81% 29.88 in 10.0 mi Calm Calm - N/A   Overcast
1:35 AM 39.2 °F 37.0 °F 33.8 °F 81% 29.86 in 10.0 mi ENE 3.5 mph - N/A   Overcast
1:55 AM 39.2 °F 35.9 °F 33.8 °F 81% 29.85 in 10.0 mi NE 4.6 mph - N/A   Overcast
2:15 AM 39.2 °F - 33.8 °F 81% 29.86 in 10.0 mi Calm Calm - N/A   Overcast
2:35 AM 39.2 °F - 33.8 °F 81% 29.85 in 10.0 mi Calm Calm - N/A   Mostly Cloudy
2:55 AM 37.4 °F - 33.8 °F 87% 29.85 in 10.0 mi Calm Calm - N/A   Overcast
3:15 AM 37.4 °F - 33.8 °F 87% 29.85 in 10.0 mi Calm Calm - N/A   Overcast
3:35 AM 35.6 °F 31.7 °F 32.0 °F 87% 29.84 in 10.0 mi South 4.6 mph - N/A   Scattered Clouds
3:55 AM 35.6 °F 32.8 °F 32.0 °F 87% 29.85 in 10.0 mi South 3.5 mph - N/A   Clear
4:15 AM 35.6 °F - 32.0 °F 87% 29.85 in 10.0 mi Calm Calm - N/A   Mostly Cloudy
4:35 AM 37.4 °F 33.8 °F 33.8 °F 87% 29.86 in 10.0 mi SSW 4.6 mph - N/A   Overcast
4:55 AM 37.4 °F 34.9 °F 33.8 °F 87% 29.87 in 10.0 mi SSW 3.5 mph - N/A   Overcast
5:15 AM 37.4 °F - 33.8 °F 87% 29.87 in 10.0 mi Calm Calm - N/A   Overcast
5:35 AM 37.4 °F 32.8 °F 33.8 °F 87% 29.89 in 10.0 mi South 5.8 mph - N/A   Overcast
5:55 AM 37.4 °F 33.8 °F 35.6 °F 93% 29.91 in 10.0 mi SSW 4.6 mph - N/A   Overcast
6:15 AM 39.2 °F 35.9 °F 35.6 °F 87% 29.91 in 10.0 mi South 4.6 mph - N/A   Overcast
6:35 AM 39.2 °F 35.0 °F 33.8 °F 81% 29.91 in 10.0 mi South 5.8 mph - N/A   Overcast
6:55 AM 39.2 °F 35.9 °F 35.6 °F 87% 29.91 in 10.0 mi South 4.6 mph - N/A   Overcast
7:15 AM 37.4 °F 33.8 °F 33.8 °F 87% 29.92 in 10.0 mi South 4.6 mph - N/A   Scattered Clouds
7:35 AM 37.4 °F 34.9 °F 33.8 °F 87% 29.92 in 10.0 mi South 3.5 mph - N/A   Clear
7:55 AM 37.4 °F 34.9 °F 35.6 °F 93% 29.92 in 10.0 mi SE 3.5 mph - N/A   Clear
8:15 AM 39.2 °F 35.0 °F 35.6 °F 87% 29.92 in 10.0 mi SSE 5.8 mph - N/A   Clear
8:35 AM 41.0 °F 38.0 °F 35.6 °F 81% 29.94 in 10.0 mi South 4.6 mph - N/A   Clear
8:55 AM 42.8 °F 40.1 °F 35.6 °F 76% 29.93 in 10.0 mi SE 4.6 mph - N/A   Clear
9:15 AM 42.8 °F 39.3 °F 37.4 °F 81% 29.93 in 10.0 mi SE 5.8 mph - N/A   Clear
9:35 AM 44.6 °F 40.2 °F 35.6 °F 71% 29.93 in 10.0 mi SE 8.1 mph - N/A   Clear
9:55 AM 46.4 °F 42.4 °F 37.4 °F 71% 29.93 in 10.0 mi SSE 8.1 mph - N/A   Clear
10:15 AM 48.2 °F - 37.4 °F 66% 29.93 in 10.0 mi SSE 3.5 mph - N/A   Clear
10:35 AM 50.0 °F - 39.2 °F 66% 29.93 in 10.0 mi SSE 5.8 mph - N/A   Clear
10:55 AM 51.8 °F - 39.2 °F 62% 29.92 in 10.0 mi SSE 6.9 mph - N/A   Clear
11:15 AM 53.6 °F - 39.2 °F 58% 29.92 in 10.0 mi SE 3.5 mph - N/A   Clear
11:35 AM 55.4 °F - 41.0 °F 58% 29.92 in 10.0 mi South 6.9 mph - N/A   Clear
11:55 AM 55.4 °F - 41.0 °F 58% 29.91 in 10.0 mi SE 6.9 mph - N/A   Clear
12:15 PM 57.2 °F - 39.2 °F 51% 29.90 in 10.0 mi SW 9.2 mph - N/A   Clear
12:35 PM 59.0 °F - 39.2 °F 48% 29.90 in 10.0 mi South 10.4 mph - N/A   Clear
12:55 PM 62.6 °F - 42.8 °F 48% 29.89 in 10.0 mi SSE 8.1 mph - N/A   Clear
1:15 PM 62.6 °F - 42.8 °F 48% 29.88 in 10.0 mi SSE 8.1 mph - N/A   Clear
1:35 PM 64.4 °F - 42.8 °F 45% 29.87 in 10.0 mi SSW 10.4 mph - N/A   Clear
1:55 PM 66.2 °F - 42.8 °F 43% 29.87 in 10.0 mi South 10.4 mph - N/A   Clear
2:15 PM 66.2 °F - 42.8 °F 43% 29.86 in 10.0 mi SW 9.2 mph 16.1 mph N/A   Clear
2:35 PM 66.2 °F - 42.8 °F 43% 29.85 in 10.0 mi SSE 8.1 mph - N/A   Clear
2:55 PM 68.0 °F - 42.8 °F 40% 29.84 in 10.0 mi South 12.7 mph 17.3 mph N/A   Clear
3:15 PM 69.8 °F - 42.8 °F 38% 29.84 in 10.0 mi SSE 11.5 mph 17.3 mph N/A   Clear
3:35 PM 69.8 °F - 42.8 °F 38% 29.83 in 10.0 mi SSE 13.8 mph 20.7 mph N/A   Clear
3:55 PM 69.8 °F - 42.8 °F 38% 29.83 in 10.0 mi South 12.7 mph 19.6 mph N/A   Clear
4:15 PM 71.6 °F - 42.8 °F 35% 29.83 in 10.0 mi South 11.5 mph 19.6 mph N/A   Clear
4:35 PM 69.8 °F - 42.8 °F 38% 29.83 in 10.0 mi South 15.0 mph 19.6 mph N/A   Clear
4:55 PM 71.6 °F - 42.8 °F 35% 29.83 in 10.0 mi SW 11.5 mph 16.1 mph N/A   Clear
5:15 PM 69.8 °F - 42.8 °F 38% 29.83 in 10.0 mi SW 12.7 mph 19.6 mph N/A   Clear
5:35 PM 69.8 °F - 42.8 °F 38% 29.83 in 10.0 mi SW 10.4 mph 17.3 mph N/A   Clear
5:55 PM 68.0 °F - 42.8 °F 40% 29.84 in 10.0 mi SW 10.4 mph 16.1 mph N/A   Clear
6:15 PM 66.2 °F - 41.0 °F 40% 29.84 in 10.0 mi SSW 11.5 mph 20.7 mph N/A   Clear
6:35 PM 66.2 °F - 42.8 °F 43% 29.84 in 10.0 mi South 15.0 mph 19.6 mph N/A   Clear
6:55 PM 64.4 °F - 42.8 °F 45% 29.84 in 10.0 mi South 11.5 mph 20.7 mph N/A   Clear
7:15 PM 64.4 °F - 42.8 °F 45% 29.85 in 10.0 mi South 11.5 mph 17.3 mph N/A   Clear
7:35 PM 62.6 °F - 42.8 °F 48% 29.85 in 10.0 mi South 13.8 mph - N/A   Clear
7:55 PM 62.6 °F - 42.8 °F 48% 29.87 in 10.0 mi South 11.5 mph 18.4 mph N/A   Clear
8:15 PM 60.8 °F - 42.8 °F 52% 29.88 in 10.0 mi SSW 9.2 mph - N/A   Clear
8:35 PM 60.8 °F - 42.8 °F 52% 29.90 in 10.0 mi SSW 10.4 mph - N/A   Clear
8:55 PM 59.0 °F - 42.8 °F 55% 29.91 in 10.0 mi South 9.2 mph - N/A   Clear
9:15 PM 57.2 °F - 42.8 °F 59% 29.92 in 10.0 mi South 9.2 mph - N/A   Clear
9:35 PM 57.2 °F - 42.8 °F 59% 29.92 in 10.0 mi South 11.5 mph - N/A   Clear
9:55 PM 57.2 °F - 44.6 °F 63% 29.91 in 10.0 mi South 11.5 mph - N/A   Clear
10:15 PM 55.4 °F - 44.6 °F 67% 29.91 in 10.0 mi South 11.5 mph 18.4 mph N/A   Clear
10:35 PM 55.4 °F - 44.6 °F 67% 29.92 in 10.0 mi South 13.8 mph - N/A   Clear
10:55 PM 55.4 °F - 44.6 °F 67% 29.93 in 10.0 mi South 12.7 mph - N/A   Clear
11:15 PM 55.4 °F - 46.4 °F 72% 29.94 in 10.0 mi South 12.7 mph - N/A   Clear
11:35 PM 55.4 °F - 44.6 °F 67% 29.93 in 10.0 mi South 12.7 mph 17.3 mph N/A   Clear
11:55 PM 53.6 °F - 46.4 °F 77% 29.94 in 10.0 mi South 10.4 mph - N/A   Clear